Regional Weather Roundup
Issued by NWS

Home | Current Version | Previous Version | Text Only | Print | Product List | Glossary On
Versions: 1 2 3 4 5 6 7 8 9 10 11 12 13 14 15 16 17 18 19 20 21 22 23 24 25 26 27 28 29 30 31 32 33 34 35 36 37 38 39 40 41 42 43 44 45 46 47 48 49 50
000
ASUS43 KLMK 280402
RWRKY
KENTUCKY REGIONAL WEATHER ROUNDUP
NATIONAL WEATHER SERVICE LOUISVILLE KY
1200 AM EDT THU AUG 28 2014

NOTE "FAIR" INDICATES FEW OR NO CLOUDS BELOW 12,000 FEET
WITH NO SIGNIFICANT WEATHER AND/OR OBSTRUCTIONS TO VISIBILITY.

KYZ001>023-026-027-061>063-070>075-280500-
WESTERN AND SOUTH CENTRAL KENTUCKY

CITY           SKY/WX    TMP DP  RH WIND       PRES   REMARKS
PADUCAH        MOCLDY    78  71  79 CALM      30.03F
HENDERSON      MOCLDY    75  70  83 NW5       30.05S
OWENSBORO      PTCLDY    79  73  81 CALM      30.05F
HOPKINSVILLE   CLEAR     78  74  87 CALM      30.05F
BOWLING GREEN  CLOUDY    77  72  84 CALM      30.06S
GLASGOW        MOCLDY    73  72  96 CALM      30.07S
$$

KYZ024-025-028>034-038-045-046-053-280500-
NORTH CENTRAL KENTUCKY

CITY           SKY/WX    TMP DP  RH WIND       PRES   REMARKS
LOUISVILLE/SDF MOCLDY    76  72  87 CALM      30.05S
LOUISVILLE/LOU MOCLDY    75  72  90 N3        30.06R
FORT KNOX      MOCLDY    72  72 100 S2        30.05S
$$

KYZ035>037-039>044-047>052-055>060-089>105-280500-
NORTHEAST KENTUCKY

CITY           SKY/WX    TMP DP  RH WIND       PRES   REMARKS
LEXINGTON      MOCLDY    72  68  87 CALM      30.07F
COVINGTON      PTCLDY    77  69  76 N7        30.08R
FRANKFORT      MOCLDY    71  70  96 CALM      30.06S
$$

KYZ054-064>069-076>088-106>120-280500-
SOUTHEAST KENTUCKY

CITY           SKY/WX    TMP DP  RH WIND       PRES   REMARKS
JACKSON        MOCLDY    74  68  81 CALM      30.09S
LONDON         PTCLDY    73  69  87 CALM      30.09S
SOMERSET       MOCLDY    72  72 100 CALM      30.09S FOG
MIDDLESBORO    CLEAR     67  65  93 CALM      30.11R
MONTICELLO     CLEAR     71  70  97 CALM      30.09F FOG
$$



USA.gov is the U.S. government's official web portal to all federal, state and local government web resources and services.